Lot # 8 - Yamaha Receiver, Furman Power Conditioner and DVD Player

Opening Bid : $ 5.00
Pickup Instructions: Kirkland, WA. Pick up Saturday the 24th only- 1-:00-4:00 No alternate days
Start Date/Time: 16-Apr-2021 7:00:00 AM
End Date/Time: 22-Apr-2021 7:17:00 PM
Current bid:

$202.00

Highest bidder:

bluearmand

Auction has ended

Description :

Yamaha Receiver, Furman Power Conditioner and DVD Player. Please see photos. 

The Furman M-8x2 power conditioner protects your electronic equipment by combining high voltage varistor (MOV) surge and transient suppressors. The fast-acting suppression circuit quickly responds and clamps transient voltages to safe levels. An RFI/EMI interference filter works to prevent and suppress noise from fluorescent lights, certain dimmers, radio transmitters, and similar sources of electronic pollution from contaminating the AC line and from there, leaking into sensitive audio, video, or computer circuits. 

Auction History

Highest bidder is bluearmand

Date Bid User
22-Apr-2021 7:14:49 PM $202.00 bluearmand
22-Apr-2021 7:14:49 PM $198.00 MaryB
22-Apr-2021 7:12:46 PM $190.00 bluearmand
22-Apr-2021 7:12:26 PM $181.00 MaryB
22-Apr-2021 7:09:22 PM $150.00 bluearmand
22-Apr-2021 7:08:44 PM $123.00 MaryB
22-Apr-2021 7:08:24 PM $99.00 bluearmand
22-Apr-2021 7:08:24 PM $98.00 MaryB
22-Apr-2021 7:05:07 PM $86.00 bluearmand
22-Apr-2021 7:05:07 PM $85.00 MaryB
22-Apr-2021 7:04:13 PM $76.00 bluearmand
22-Apr-2021 6:56:01 PM $70.00 MaryB
22-Apr-2021 6:52:31 PM $66.00 WF
22-Apr-2021 5:21:35 PM $60.00 MaryB
22-Apr-2021 5:04:25 PM $47.00 Hammer
22-Apr-2021 5:04:13 PM $45.00 WF
22-Apr-2021 5:04:13 PM $44.00 Hammer
22-Apr-2021 9:58:35 AM $36.00 WF
22-Apr-2021 9:58:35 AM $35.00 MaryB
19-Apr-2021 8:19:46 PM $31.00 WF
19-Apr-2021 3:37:33 PM $26.00 Hammer
19-Apr-2021 3:37:05 PM $20.00 WF
19-Apr-2021 3:37:05 PM $19.00 Hammer
16-Apr-2021 1:56:45 PM $11.00 WF
16-Apr-2021 11:50:26 AM $5.00 Kwoulfin

© 2021 Sound Estate Company LLC. All rights reserved | Designed & Developed by invictusstudio.com